[[{"header":{"parameterUnit":"m.s-1","parameterCategory":1,"la1":30.2991,"la2":30.254,"lo1":-89.0895,"lo2":-89.0444,"dy":0.0017,"dx":0.0017,"nx":28,"ny":28,"refTime":"2025-03-26T03:00:00:Z","depth":0,"parameterNumber":2,"parameterNumberName":"U-component_of_WINDS"},"data":[0,0,0,0,0,0,0,0,0,0,0,0,0,0,0,0,0,0,0,0,0,0,0,0,0,0,0,0,0,0,0,0,0,0,0,0,0,0,0,0,0,0,0,0,0,0,0,0,0,0,0,0,0,0,0,0,0,0,0.7825,0.7826,0,0.7887,0.7888,0.7888,0.7889,0.7888,0.7887,0.7886,0.7952,0.7954,0.7957,0,0,0,0,0,0,0,0,0,0,0,0,0,0.7709,0.7711,0.7825,0.7826,0.7827,0.7887,0.7888,0.7889,0.7889,0.7888,0.7887,0.7886,0.7951,0.7954,0.7957,0,0,0,0,0,0,0,0,0,0,0,0,0,0.7764,0.7712,0.7825,0.7834,0.7835,0.7887,0.7888,0.7889,0.7889,0.7888,0.7887,0.7885,0.795,0.7954,0.7958,0.8005,0,0,0.7969,0.7971,0,0,0,0,0,0,0,0,0.7761,0.7768,0.7832,0.7833,0.7835,0.7879,0.7871,0.7928,0.7889,0.7869,0.7886,0.7885,0.7929,0.7934,0.7949,0.8008,0.8011,0.7969,0.7972,0.7973,0.7974,0,0,0,0,0,0,0,0.7757,0.7766,0.785,0.7833,0.7835,0.7835,0.7842,0.7882,0.7905,0.787,0.787,0.7878,0.7929,0.7945,0.795,0.8012,0.7969,0.7973,0.7975,0.7976,0.8113,0.8114,0,0,0,0,0,0,0.7751,0.7763,0.7848,0.7851,0.7794,0.7839,0.7846,0.7866,0.7904,0.7909,0.7879,0.7877,0.7939,0.7946,0.7952,0.8011,0.7973,0.7977,0.7979,0.8112,0.8113,0.8115,0,0,0,0,0,0,0.7749,0.7759,0.7845,0.7807,0.7818,0.7842,0.7865,0.7868,0.7883,0.7911,0.7915,0.789,0.7938,0.7947,0.7992,0.8013,0.7978,0.7982,0.811,0.8112,0.8114,0.8127,0,0,0,0,0,0,0.7745,0.7758,0.7776,0.7807,0.782,0.7883,0.7866,0.787,0.789,0.7889,0.7923,0.7927,0.7938,0.7986,0.7995,0.8018,0.7985,0.8108,0.8111,0.8114,0.8125,0.813,0.8133,0,0,0,0,0,0.7741,0.7777,0.7777,0.7787,0.7843,0.7884,0.7892,0.7903,0.7891,0.791,0.7927,0.7926,0.8009,0.7991,0.8001,0.8025,0.8107,0.811,0.8113,0.8123,0.8129,0.8133,0,0,0,0,0,0,0.7749,0.7782,0.7781,0.7829,0.7853,0.7884,0.7908,0.7908,0.7938,0.7936,0.7949,0.7957,0.8001,0.8017,0.7996,0.8072,0.8057,0.8062,0.8061,0.8066,0.807,0.8066,0.7988,0,0,0,0,0,0.7756,0.7786,0.7813,0.7853,0.7865,0.7884,0.7903,0.7909,0.7936,0.7946,0.7967,0.7994,0.8026,0.8046,0.8077,0.8127,0.8135,0.8148,0.8152,0.8156,0.8161,0.8188,0.8195,0.8125,0.8125,0.8125,0,0,0.7771,0.7793,0.7811,0.7855,0.7875,0.7906,0.7893,0.7927,0.7951,0.7952,0.7995,0.8011,0.8042,0.8089,0.8111,0.8104,0.8181,0.816,0.8162,0.8165,0.8192,0.8199,0.8205,0.8127,0.8127,0.8127,0,0,0.7815,0.7834,0.7869,0.7889,0.7919,0.7931,0.7939,0.797,0.798,0.8024,0.8025,0.8054,0.8108,0.813,0.8148,0.8199,0.82,0.8209,0.8231,0.8258,0.8263,0.8268,0.8287,0.8294,0.8214,0.8214,0.8214,0,0.783,0.7877,0.7887,0.7921,0.794,0.7941,0.7977,0.7996,0.8035,0.8049,0.804,0.8108,0.8129,0.8182,0.8194,0.8208,0.8219,0.8206,0.8262,0.8267,0.8272,0.829,0.8297,0.8215,0.8214,0.8214,0.8214,0,0.7895,0.7927,0.7952,0.7989,0.8011,0.8045,0.8061,0.8082,0.8086,0.81,0.8144,0.8169,0.8204,0.8217,0.8222,0.827,0.8265,0.8259,0.8243,0.8279,0.8296,0.8303,0.8216,0.8216,0.8215,0.8215,0,0,0.7946,0.7987,0.7996,0.8013,0.8046,0.8071,0.8106,0.814,0.8159,0.8185,0.8215,0.8261,0.8255,0.8276,0.8283,0.8306,0.8346,0.8297,0.8298,0.8306,0.8401,0.8406,0.8414,0.8345,0.8347,0.8348,0.8398,0,0.7994,0.8056,0.8065,0.812,0.815,0.8151,0.8181,0.8205,0.8218,0.8247,0.8261,0.8294,0.8283,0.8296,0.8319,0.8336,0.8365,0.8332,0.8374,0.8376,0.8367,0.8423,0.8429,0.8475,0.8405,0.8406,0.8407,0,0.8059,0.8086,0.8143,0.8172,0.8185,0.8212,0.8244,0.8271,0.8298,0.8306,0.8328,0.8332,0.8369,0.8351,0.8402,0.8379,0.8397,0.8407,0.8409,0.8415,0.8394,0.843,0.8491,0.8498,0.8418,0.8417,0.8416,0,0.8092,0.8143,0.8184,0.8198,0.8232,0.8251,0.8266,0.8292,0.8312,0.834,0.8353,0.8385,0.8403,0.8428,0.844,0.8426,0.8491,0.8473,0.8499,0.8499,0.8513,0.8513,0.8578,0.8523,0.8523,0.8523,0.8523,0,0.8145,0.818,0.8199,0.8224,0.8264,0.8274,0.8313,0.8328,0.835,0.8379,0.8381,0.8408,0.8423,0.8452,0.8462,0.8503,0.8511,0.8519,0.8521,0.8519,0.8518,0.8531,0.8529,0.8525,0.8524,0.8524,0.8524,0,0.8189,0.8203,0.8248,0.8276,0.8284,0.8311,0.8336,0.8361,0.8373,0.8409,0.8418,0.8438,0.8472,0.8487,0.8529,0.8536,0.8583,0.8582,0.8574,0.8575,0.86,0.8597,0.8677,0.8688,0.8625,0.8625,0.8626,0,0.8223,0.825,0.828,0.8299,0.8315,0.8345,0.8365,0.8377,0.8397,0.843,0.8451,0.8484,0.8512,0.8567,0.8586,0.8618,0.8619,0.8644,0.8624,0.8621,0.862,0.8618,0.8621,0.8648,0.8649,0.865,0.865,0,0.8281,0.8286,0.8315,0.8346,0.8369,0.8394,0.8419,0.8434,0.8449,0.8473,0.8507,0.8529,0.8571,0.8605,0.8638,0.8654,0.8655,0.8656,0.8664,0.8662,0.8656,0.8661,0.8585,0.8655,0.8654,0.8654,0.8654,0.8653,0.8322,0.8345,0.8371,0.8402,0.8422,0.8444,0.8469,0.8484,0.8513,0.8548,0.8553,0.859,0.8616,0.866,0.8677,0.8707,0.87,0.8711,0.8714,0.8717,0.8719,0.8651,0.8713,0.8713,0.8712,0.8712,0.8712,0,0.8381,0.8397,0.8426,0.8459,0.8484,0.8481,0.8508,0.8529,0.8562,0.8586,0.8613,0.8652,0.8685,0.8705,0.8738,0.8758,0.8759,0.8766,0.8765,0.8769,0.8723,0.8713,0.8765,0.8765,0.8765,0.8765,0.8765,0.8765,0.8414,0.8455,0.8463,0.8513,0.8529,0.8565,0.8581,0.8602,0.8621,0.8664,0.8691,0.8704,0.8727,0.8761,0.8791,0.8796,0.8808,0.8816,0.8821,0.8778,0.8772,0.8767,0.8758,0.8818,0.8819,0.8865,0.8866,0.8866]},{"header":{"parameterUnit":"m.s-1","parameterCategory":1,"la1":30.2991,"la2":30.254,"lo1":-89.0895,"lo2":-89.0444,"dy":0.0017,"dx":0.0017,"nx":28,"ny":28,"refTime":"2025-03-26T03:00:00:Z","depth":0,"parameterNumber":3,"parameterNumberName":"V-component_of_WINDS"},"data":[0,0,0,0,0,0,0,0,0,0,0,0,0,0,0,0,0,0,0,0,0,0,0,0,0,0,0,0,0,0,0,0,0,0,0,0,0,0,0,0,0,0,0,0,0,0,0,0,0,0,0,0,0,0,0,0,0,0,1.2322,1.2323,0,1.2397,1.2398,1.2398,1.2449,1.245,1.245,1.245,1.2523,1.2524,1.2526,0,0,0,0,0,0,0,0,0,0,0,0,0,1.2217,1.2219,1.2322,1.2323,1.2324,1.2397,1.2398,1.2399,1.2449,1.245,1.245,1.2451,1.2522,1.2524,1.2526,0,0,0,0,0,0,0,0,0,0,0,0,0,1.2274,1.2219,1.2322,1.2358,1.2362,1.2396,1.2398,1.2399,1.2449,1.245,1.245,1.2451,1.2522,1.2524,1.2526,1.2529,0,0,1.2534,1.2535,0,0,0,0,0,0,0,0,1.2271,1.2278,1.2352,1.2356,1.236,1.2414,1.2387,1.2443,1.2449,1.2416,1.245,1.2451,1.2486,1.2491,1.2504,1.2533,1.2536,1.2534,1.2535,1.2536,1.2537,0,0,0,0,0,0,0,1.2267,1.2275,1.2352,1.2353,1.2358,1.2368,1.2377,1.2398,1.2447,1.2419,1.2423,1.2431,1.2488,1.2502,1.2506,1.2537,1.2534,1.2536,1.2537,1.2538,1.2567,1.2566,0,0,0,0,0,0,1.2258,1.2271,1.2349,1.2354,1.2316,1.237,1.238,1.2396,1.2447,1.2455,1.243,1.2433,1.2497,1.2503,1.2509,1.2513,1.2536,1.2538,1.254,1.2567,1.2567,1.2566,0,0,0,0,0,0,1.2255,1.2264,1.2346,1.2314,1.2325,1.2371,1.2389,1.2398,1.2411,1.2456,1.2464,1.2435,1.2498,1.2505,1.2523,1.2516,1.2539,1.2542,1.2568,1.2567,1.2566,1.2522,0,0,0,0,0,0,1.2252,1.2263,1.2267,1.2313,1.2326,1.2362,1.2389,1.2399,1.2415,1.2419,1.2462,1.247,1.2499,1.2519,1.2525,1.252,1.2543,1.2569,1.2568,1.2567,1.2525,1.252,1.2516,0,0,0,0,0,1.2248,1.2252,1.2267,1.2276,1.2332,1.2361,1.2368,1.2403,1.2415,1.2417,1.2445,1.2469,1.2516,1.2521,1.2528,1.2523,1.257,1.2568,1.2567,1.2527,1.2521,1.2516,0,0,0,0,0,0,1.2204,1.2259,1.2276,1.2296,1.2323,1.237,1.2375,1.2396,1.2421,1.2423,1.2463,1.2472,1.2485,1.2506,1.251,1.2526,1.2545,1.2545,1.2512,1.2507,1.2503,1.2497,1.2545,0,0,0,0,0,1.2196,1.2217,1.2263,1.2276,1.2288,1.2329,1.2343,1.2366,1.2396,1.2408,1.2437,1.2464,1.2484,1.2497,1.2519,1.2527,1.2535,1.2527,1.2523,1.2519,1.2518,1.252,1.2516,1.2561,1.2561,1.2561,0,0,1.2181,1.2214,1.2224,1.2267,1.2292,1.2309,1.2338,1.2357,1.2369,1.241,1.2428,1.245,1.2482,1.2494,1.2501,1.2512,1.2507,1.2517,1.2514,1.2515,1.2518,1.2514,1.251,1.256,1.256,1.256,0,0,1.2162,1.219,1.2202,1.2224,1.226,1.2286,1.2288,1.2331,1.2347,1.2365,1.2395,1.2409,1.2445,1.2465,1.248,1.2462,1.2483,1.2468,1.2445,1.2446,1.2443,1.244,1.243,1.2427,1.2467,1.2467,1.2467,0,1.2139,1.2169,1.2205,1.222,1.2236,1.2273,1.2283,1.2303,1.2343,1.2352,1.2364,1.2406,1.2431,1.2446,1.2441,1.2453,1.2454,1.2463,1.2441,1.2438,1.2436,1.2427,1.2424,1.2464,1.2465,1.2465,1.2465,0,1.2136,1.2155,1.216,1.2197,1.2214,1.2226,1.2262,1.2273,1.2294,1.2317,1.2333,1.2363,1.2389,1.2394,1.2415,1.2411,1.2416,1.2433,1.2454,1.2428,1.2421,1.2418,1.2461,1.2462,1.2463,1.2463,0,0,1.2095,1.2149,1.215,1.2165,1.2204,1.2219,1.2231,1.2256,1.2264,1.2289,1.2298,1.2325,1.2339,1.2356,1.2379,1.238,1.2359,1.2397,1.2398,1.2387,1.2352,1.2337,1.2333,1.2373,1.2373,1.2373,1.2348,0,1.2081,1.2106,1.2136,1.215,1.2166,1.2198,1.2207,1.2231,1.2252,1.2266,1.2288,1.2305,1.2326,1.2335,1.2338,1.2361,1.2353,1.2364,1.2379,1.2379,1.2369,1.233,1.2316,1.2291,1.2346,1.2345,1.2345,0,1.207,1.2091,1.2106,1.2139,1.2147,1.2156,1.2179,1.2193,1.2218,1.2233,1.2248,1.2272,1.2282,1.23,1.2313,1.232,1.2327,1.2339,1.2339,1.2341,1.236,1.2328,1.2285,1.228,1.2341,1.2342,1.2342,0,1.2035,1.2068,1.208,1.2093,1.2133,1.2137,1.2153,1.2179,1.2191,1.221,1.2217,1.2237,1.2248,1.2261,1.2288,1.2299,1.2296,1.2317,1.2306,1.2305,1.2304,1.2303,1.2258,1.2311,1.2311,1.2311,1.2311,0,1.2016,1.2023,1.2065,1.2072,1.2079,1.2111,1.2117,1.2136,1.2157,1.2167,1.2195,1.2203,1.2238,1.2249,1.2269,1.2274,1.228,1.2289,1.2294,1.2286,1.2284,1.2291,1.2293,1.231,1.231,1.231,1.2311,0,1.198,1.2008,1.2023,1.2058,1.2066,1.2069,1.2098,1.2104,1.2125,1.2136,1.214,1.2172,1.2185,1.2213,1.2234,1.2247,1.2246,1.2257,1.2238,1.2241,1.2227,1.2227,1.2184,1.2178,1.2236,1.2235,1.2235,0,1.1966,1.1972,1.2005,1.2013,1.2028,1.2042,1.2053,1.2083,1.2092,1.2118,1.212,1.2135,1.2149,1.2168,1.2192,1.2207,1.2216,1.22,1.2219,1.2208,1.2213,1.2211,1.221,1.2196,1.2195,1.2194,1.2194,0,1.1937,1.1949,1.1964,1.1982,1.1994,1.201,1.2028,1.2032,1.2066,1.2074,1.2088,1.2098,1.2118,1.2131,1.2148,1.2163,1.2182,1.2187,1.2185,1.2176,1.2164,1.2167,1.2224,1.2188,1.2189,1.2189,1.219,1.219,1.191,1.1915,1.1938,1.1952,1.1967,1.1981,1.1987,1.2007,1.2019,1.2037,1.2054,1.2064,1.2083,1.2109,1.2121,1.2128,1.2138,1.2136,1.2135,1.2133,1.2128,1.2163,1.2131,1.2131,1.2132,1.2132,1.2132,0,1.188,1.1895,1.1908,1.193,1.1939,1.1956,1.1975,1.1981,1.199,1.2007,1.2019,1.2031,1.2043,1.2065,1.2078,1.2078,1.2087,1.2081,1.208,1.2082,1.212,1.2119,1.2073,1.2073,1.2073,1.2073,1.2073,1.2073,1.1866,1.1873,1.1887,1.19,1.1915,1.1925,1.1933,1.1945,1.1958,1.197,1.1979,1.1994,1.2011,1.2024,1.2034,1.204,1.2042,1.2032,1.204,1.2075,1.208,1.2086,1.2085,1.2033,1.2032,1.2002,1.2002,1.2001]}]]